小惑星A/2019 O2

A/2019 O2

English version
Home page
Updated on September 18, 2021

---------------------------------------------------------------------

・ プロフィール

発見日 2019年7月24日
発見光度 20.5等
発見者 Pan-STARRS 1 telescope (Haleakala)

・ 写真集

・ 軌道要素

Epoch 2023 Apr. 6.0 TT = JDT 2460040.5
T 2023 Apr. 7.23445 TT                                  Rudenko
q   9.6827427            (2000.0)            P               Q
z  +0.0172716      Peri.  129.64048     -0.39155182     -0.54010325
 +/-0.0000000      Node    48.26311     -0.76971196     -0.25138500
e   0.8327638      Incl.   93.30726     +0.50421292     -0.80317748
H    9.5
From 144 observations 2019 July 24-2021 Apr. 17, mean residual 0".4.

・ 光度変化

        H = 9.2  G = 0.15

---------------------------------------------------------------------

軌道要素はM.P.E.C. 2021-L04に掲載されたものです。
光度グラフはComet for Windowsで作成したものです。

---------------------------------------------------------------------

Copyright(C) Seiichi Yoshida (comet@aerith.net). All rights reserved.